Location: Unspecified
(0.0000°N, 0.0000°E)
Time: 04:13:20
(UTC+00:00)

Vanguard 1 - Pass Details

Date: 18 December 2023
Orbit: 653 x 3826 km, 34.3° (Epoch: 22 February)

Event Time Altitude Azimuth Distance (km) Brightness Sun altitude
Rises 18:59:44 0° 325° (NW) 5,986 14.2 -14.5°
Reaches altitude 10° 19:04:07 10° 336° (NNW) 5,417 13.8 -15.5°
Maximum altitude 19:19:07 31° 33° (NNE) 4,962 13.1 -18.9°
Enters shadow 19:27:34 25° 64° (ENE) 5,627 13.2 -20.8°
Drops below altitude 10° 19:38:05 10° 87° (E) 6,915 - -23.2°
Sets 19:44:35 0° 97° (E) 7,818 - -24.6°
